Weather History for Stephenville, TX

Change the Weather History Date:

Friday, March 9, 2012

  Actual Average Record
Temperature  
Mean Temperature 38 °F -  
Max Temperature 42 °F 68 °F 86 °F (1993)
Min Temperature 35 °F 44 °F 24 °F (1947)
Degree Days  
Heating Degree Days 26    
Moisture  
Dew Point 33 °F    
Average Humidity 81    
Maximum Humidity 93    
Minimum Humidity 70    
Precipitation  
Precipitation 0.33 in - - ()
Sea Level Pressure  
Sea Level Pressure 30.40 in    
Wind  
Wind Speed 13 mph (NNE)    
Max Wind Speed 22 mph    
Max Gust Speed 28 mph    
Visibility 9 miles    
Events      
Averages and records for this station are not official NWS values.
T = Trace of Precipitation, MM = Missing Value Source: NWS Daily Summary

Daily Weather History Graph

Daily Weather History Graph

Search for Another Location

Airport:

Trip Planner

Search our weather history database for the weather conditions in past years. The results will help you decide how hot, cold, wet, or windy it might be!

Date:

Astronomy

Mar. 09, 2012 Rise Set
Actual Time 6:49 AM CST 6:36 PM CST
Civil Twilight 6:25 AM CST 7:01 PM CST
Nautical Twilight 5:57 AM CST 7:29 PM CST
Astronomical Twilight 5:28 AM CST 7:58 PM CST
Moon 8:27 PM CST (3/9) 7:17 AM CST (3/9)
Length of Visible Light 12h 35m
Length of Day
11h 47m
Full, 97% of the Moon is Illuminated
Mar 9
Full
Mar 14
Last Quarter
Mar 22
New
Mar 30
First Quarter
Apr 6
Full

Hourly Weather History & Observations

Time (CST) Temp. Windchill Dew Point Humidity Pressure Visibility Wind Dir Wind Speed Gust Speed Precip Events Conditions
12:15 AM 39.2 °F 31.2 °F 32.0 °F 75% 30.37 in 10.0 mi North 13.8 mph 24.2 mph N/A   Overcast
12:35 AM 39.2 °F 30.2 °F 32.0 °F 75% 30.36 in 10.0 mi North 17.3 mph 25.3 mph N/A   Overcast
12:55 AM 39.2 °F 31.2 °F 32.0 °F 75% 30.37 in 10.0 mi North 13.8 mph 23.0 mph N/A   Overcast
1:15 AM 39.2 °F 30.5 °F 30.2 °F 70% 30.38 in 10.0 mi North 16.1 mph 23.0 mph N/A   Overcast
1:35 AM 39.2 °F 32.0 °F 32.0 °F 75% 30.40 in 10.0 mi North 11.5 mph - N/A   Overcast
1:55 AM 39.2 °F 32.0 °F 32.0 °F 75% 30.38 in 10.0 mi North 11.5 mph 18.4 mph N/A   Overcast
2:15 AM 39.2 °F 30.5 °F 32.0 °F 75% 30.38 in 10.0 mi North 16.1 mph 24.2 mph N/A   Overcast
2:35 AM 39.2 °F 29.3 °F 32.0 °F 75% 30.36 in 10.0 mi North 20.7 mph 26.5 mph N/A   Overcast
2:55 AM 39.2 °F 29.0 °F 32.0 °F 75% 30.33 in 10.0 mi NNE 21.9 mph 27.6 mph N/A   Overcast
3:15 AM 39.2 °F 29.8 °F 32.0 °F 75% 30.37 in 10.0 mi North 18.4 mph 23.0 mph N/A   Overcast
3:35 AM 39.2 °F 30.2 °F 32.0 °F 75% 30.37 in 10.0 mi North 17.3 mph 25.3 mph N/A   Overcast
3:55 AM 39.2 °F 30.8 °F 32.0 °F 75% 30.39 in 10.0 mi North 15.0 mph 23.0 mph N/A   Overcast
4:15 AM 37.4 °F 28.5 °F 32.0 °F 81% 30.35 in 7.0 mi NNE 15.0 mph 18.4 mph 0.02 in   Overcast
4:35 AM 37.4 °F 29.8 °F 33.8 °F 87% 30.35 in 5.0 mi NNE 11.5 mph 19.6 mph 0.08 in   Overcast
4:55 AM 37.4 °F 28.9 °F 33.8 °F 87% 30.35 in 10.0 mi North 13.8 mph 19.6 mph 0.08 in   Overcast
5:15 AM 37.4 °F 30.3 °F 33.8 °F 87% 30.38 in 10.0 mi North 10.4 mph 17.3 mph N/A   Overcast
5:35 AM 37.4 °F 30.3 °F 33.8 °F 87% 30.39 in 10.0 mi North 10.4 mph - N/A   Overcast
5:55 AM 35.6 °F 26.2 °F 33.8 °F 93% 30.39 in 10.0 mi North 15.0 mph 19.6 mph N/A   Overcast
6:15 AM 35.6 °F 28.6 °F 33.8 °F 93% 30.40 in 10.0 mi NNE 9.2 mph - N/A   Overcast
6:35 AM 35.6 °F 26.6 °F 33.8 °F 93% 30.36 in 10.0 mi NNE 13.8 mph 18.4 mph N/A   Overcast
6:55 AM 35.6 °F 25.5 °F 33.8 °F 93% 30.36 in 10.0 mi North 17.3 mph 27.6 mph N/A   Mostly Cloudy
7:15 AM 35.6 °F 25.5 °F 32.0 °F 87% 30.36 in 10.0 mi North 17.3 mph 27.6 mph N/A   Mostly Cloudy
7:35 AM 35.6 °F 25.5 °F 32.0 °F 87% 30.38 in 10.0 mi North 17.3 mph 26.5 mph N/A   Overcast
7:55 AM 35.6 °F 25.9 °F 32.0 °F 87% 30.41 in 10.0 mi North 16.1 mph - 0.01 in   Overcast
8:15 AM 35.6 °F 25.5 °F 32.0 °F 87% 30.40 in 7.0 mi North 17.3 mph 24.2 mph 0.01 in   Overcast
8:35 AM 35.6 °F 29.9 °F 32.0 °F 87% 30.47 in 7.0 mi North 6.9 mph - 0.03 in   Mostly Cloudy
8:55 AM 35.6 °F 29.2 °F 32.0 °F 87% 30.45 in 10.0 mi NNE 8.1 mph - N/A   Mostly Cloudy
9:15 AM 35.6 °F 29.2 °F 33.8 °F 93% 30.46 in 7.0 mi NNE 8.1 mph - 0.01 in   Overcast
9:35 AM 35.6 °F 28.0 °F 33.8 °F 93% 30.47 in 10.0 mi NNE 10.4 mph - 0.02 in   Overcast
9:55 AM 37.4 °F 29.8 °F 33.8 °F 87% 30.46 in 10.0 mi North 11.5 mph - 0.02 in   Overcast
10:15 AM 37.4 °F 29.3 °F 33.8 °F 87% 30.44 in 10.0 mi NNE 12.7 mph 19.6 mph 0.01 in   Overcast
10:35 AM 37.4 °F 29.8 °F 33.8 °F 87% 30.46 in 5.0 mi North 11.5 mph 20.7 mph 0.03 in   Overcast
10:55 AM 37.4 °F 29.8 °F 33.8 °F 87% 30.45 in 4.0 mi North 11.5 mph - 0.09 in   Mostly Cloudy
11:15 AM 37.4 °F 29.8 °F 33.8 °F 87% 30.45 in 7.0 mi NNE 11.5 mph 18.4 mph 0.01 in   Overcast
11:35 AM 37.4 °F 28.9 °F 33.8 °F 87% 30.44 in 7.0 mi NE 13.8 mph 20.7 mph 0.03 in   Overcast
11:55 AM 37.4 °F 28.2 °F 33.8 °F 87% 30.41 in 7.0 mi NE 16.1 mph - 0.05 in   Overcast
12:15 PM 37.4 °F 28.9 °F 33.8 °F 87% 30.43 in 7.0 mi NNE 13.8 mph 19.6 mph N/A   Overcast
12:35 PM 37.4 °F 29.3 °F 33.8 °F 87% 30.44 in 10.0 mi NNE 12.7 mph 19.6 mph 0.01 in   Overcast
12:55 PM 39.2 °F 32.0 °F 33.8 °F 81% 30.44 in 10.0 mi NNE 11.5 mph 16.1 mph 0.01 in   Overcast
1:15 PM 39.2 °F 31.6 °F 35.6 °F 87% 30.42 in 10.0 mi NNE 12.7 mph - N/A   Overcast
1:35 PM 39.2 °F 32.0 °F 33.8 °F 81% 30.42 in 10.0 mi NNE 11.5 mph - N/A   Overcast
1:55 PM 41.0 °F 36.4 °F 33.8 °F 76% 30.44 in 10.0 mi NNE 6.9 mph - N/A   Overcast
2:15 PM 41.0 °F 37.1 °F 33.8 °F 76% 30.44 in 10.0 mi North 5.8 mph - N/A   Overcast
2:35 PM 41.0 °F 33.9 °F 33.8 °F 76% 30.38 in 5.0 mi NNE 12.7 mph 16.1 mph 0.03 in   Mostly Cloudy
2:55 PM 41.0 °F 34.7 °F 35.6 °F 81% 30.38 in 10.0 mi NNE 10.4 mph 18.4 mph 0.04 in   Overcast
3:15 PM 41.0 °F 33.5 °F 35.6 °F 81% 30.34 in 10.0 mi NE 13.8 mph 19.6 mph N/A   Overcast
3:35 PM 41.0 °F 35.2 °F 33.8 °F 76% 30.37 in 10.0 mi NNE 9.2 mph 16.1 mph N/A   Overcast
3:55 PM 42.8 °F 38.6 °F 33.8 °F 70% 30.39 in 10.0 mi NNE 6.9 mph - N/A   Overcast
4:15 PM 42.8 °F 38.6 °F 33.8 °F 70% 30.39 in 10.0 mi NE 6.9 mph - N/A   Overcast
4:35 PM 42.8 °F 38.0 °F 33.8 °F 70% 30.38 in 10.0 mi NNE 8.1 mph - N/A   Overcast
4:55 PM 42.8 °F 37.5 °F 33.8 °F 70% 30.35 in 10.0 mi NNE 9.2 mph - N/A   Overcast
5:15 PM 42.8 °F 36.6 °F 33.8 °F 70% 30.35 in 10.0 mi NNE 11.5 mph 20.7 mph N/A   Overcast
5:35 PM 42.8 °F 41.1 °F 33.8 °F 70% 30.38 in 10.0 mi NE 3.5 mph - N/A   Overcast
5:55 PM 42.8 °F 38.6 °F 33.8 °F 70% 30.39 in 10.0 mi North 6.9 mph - N/A   Overcast
6:15 PM 42.8 °F 38.6 °F 33.8 °F 70% 30.38 in 10.0 mi North 6.9 mph - N/A   Overcast
6:35 PM 42.8 °F 37.0 °F 33.8 °F 70% 30.37 in 10.0 mi North 10.4 mph - N/A   Overcast
6:55 PM 42.8 °F 39.3 °F 33.8 °F 70% 30.39 in 10.0 mi North 5.8 mph - N/A   Overcast
7:15 PM 42.8 °F 38.6 °F 33.8 °F 70% 30.37 in 10.0 mi NNE 6.9 mph - N/A   Overcast
7:35 PM 42.8 °F 41.1 °F 32.0 °F 66% 30.38 in 10.0 mi North 3.5 mph - N/A   Overcast
7:55 PM 42.8 °F - 32.0 °F 66% 30.39 in 10.0 mi Calm Calm - N/A   Overcast
8:15 PM 42.8 °F - 32.0 °F 66% 30.39 in 10.0 mi Calm Calm - N/A   Overcast
8:35 PM 42.8 °F 41.1 °F 33.8 °F 70% 30.39 in 10.0 mi NNE 3.5 mph - N/A   Overcast
8:55 PM 42.8 °F - 33.8 °F 70% 30.39 in 10.0 mi Calm Calm - N/A   Mostly Cloudy
9:15 PM 42.8 °F - 33.8 °F 70% 30.40 in 10.0 mi Calm Calm - N/A   Mostly Cloudy
9:35 PM 42.8 °F - 35.6 °F 76% 30.41 in 10.0 mi Calm Calm - N/A   Overcast
9:55 PM 44.6 °F - 35.6 °F 71% 30.39 in 10.0 mi Calm Calm - N/A   Overcast
10:15 PM 44.6 °F 43.1 °F 35.6 °F 71% 30.39 in 10.0 mi North 3.5 mph - N/A   Overcast
10:35 PM 44.6 °F 43.1 °F 35.6 °F 71% 30.39 in 10.0 mi NNE 3.5 mph - N/A   Overcast
10:55 PM 44.6 °F - 33.8 °F 66% 30.39 in 10.0 mi Calm Calm - N/A   Overcast
11:15 PM 44.6 °F 40.2 °F 35.6 °F 71% 30.36 in 10.0 mi NNE 8.1 mph - N/A   Overcast
11:35 PM 44.6 °F 41.4 °F 33.8 °F 66% 30.37 in 10.0 mi NE 5.8 mph - N/A   Overcast
11:55 PM 44.6 °F 43.1 °F 33.8 °F 66% 30.36 in 10.0 mi North 3.5 mph - N/A   Overcast